Change the Weather History Date:

Friday, February 15, 2013

  Actual Average Record
Temperature  
Mean Temperature 44 °F -  
Max Temperature 61 °F 57 °F 75 °F (1990)
Min Temperature 28 °F 32 °F 17 °F (2015)
Degree Days  
Heating Degree Days 20    
Moisture  
Dew Point 31 °F    
Average Humidity 81    
Maximum Humidity 100    
Minimum Humidity 31    
Precipitation  
Precipitation 0.00 in - - ()
Sea Level Pressure  
Sea Level Pressure 30.05 in    
Wind  
Wind Speed 0 mph (South)    
Max Wind Speed 6 mph    
Max Gust Speed -    
Visibility 4 miles    
Events Fog    
Averages and records for this station are not official NWS values.
T = Trace of Precipitation, MM = Missing Value Source: NWS Daily Summary

Daily Weather History Graph

Daily Weather History Graph

Search for Another Location

Airport or City:

Trip Planner

Search our weather history database for the weather conditions in past years. The results will help you decide how hot, cold, wet, or windy it might be!

Date:

Astronomy

Feb. 15, 2013 Rise Set
Actual Time 6:58 AM EST 5:53 PM EST
Civil Twilight 6:32 AM EST 6:19 PM EST
Nautical Twilight 6:02 AM EST 6:49 PM EST
Astronomical Twilight 5:32 AM EST 7:19 PM EST
Moon 9:46 AM EST (2/15) 11:38 PM EST (2/15)
Length of Visible Light 11h 47m
Length of Day
10h 55m
Waxing Crescent, 30% of the Moon is Illuminated
Feb 15
Waxing Crescent
Feb 17
First Quarter
Feb 25
Full
Mar 4
Last Quarter
Mar 11
New

Hourly Weather History & Observations

Time (EST) Temp. Windchill Dew Point Humidity Pressure Visibility Wind Dir Wind Speed Gust Speed Precip Events Conditions
12:01 AM 33.8 °F - 30.2 °F 87% 30.07 in 3.0 mi Calm Calm - N/A   Clear
12:14 AM 33.8 °F - 30.2 °F 87% 30.07 in 2.0 mi Calm Calm - N/A   Clear
12:35 AM 30.2 °F - 28.4 °F 93% 30.07 in 3.0 mi Calm Calm - N/A   Clear
12:53 AM 33.1 °F - 30.9 °F 92% 30.07 in 5.0 mi Calm Calm - N/A   Clear
1:53 AM 32.0 °F - 30.0 °F 92% 30.08 in 3.0 mi Calm Calm - N/A   Clear
1:56 AM 32.0 °F - 30.2 °F 93% 30.07 in 1.8 mi Calm Calm - N/A   Clear
2:05 AM 32.0 °F - 30.2 °F 93% 30.07 in 0.8 mi Calm Calm - N/A   Clear
2:13 AM 32.0 °F - 30.2 °F 93% 30.06 in 1.0 mi Calm Calm - N/A   Clear
2:19 AM 33.8 °F - 30.2 °F 87% 30.06 in 0.5 mi Calm Calm - N/A Fog Fog
2:30 AM 30.2 °F - 28.4 °F 93% 30.06 in 1.5 mi Calm Calm - N/A   Partly Cloudy
2:32 AM 30.2 °F - 28.4 °F 93% 30.06 in 4.0 mi Calm Calm - N/A   Partly Cloudy
2:35 AM 30.2 °F - 28.4 °F 93% 30.06 in 1.5 mi Calm Calm - N/A   Partly Cloudy
2:37 AM 30.2 °F - 28.4 °F 93% 30.06 in 0.8 mi Calm Calm - N/A   Mist
2:50 AM 30.2 °F - 28.4 °F 93% 30.06 in 1.2 mi Calm Calm - N/A   Partly Cloudy
2:53 AM 30.9 °F - 28.9 °F 92% 30.06 in 1.5 mi Calm Calm - N/A   Clear
3:17 AM 30.2 °F - 26.6 °F 86% 30.05 in 2.5 mi Calm Calm - N/A   Clear
3:35 AM 28.4 °F 23.3 °F 26.6 °F 93% 30.06 in 2.5 mi SE 4.6 mph - N/A   Partly Cloudy
3:43 AM 33.8 °F - 30.2 °F 87% 30.05 in 4.0 mi Calm Calm - N/A   Clear
3:53 AM 30.0 °F - 28.9 °F 96% 30.06 in 3.0 mi Calm Calm - N/A   Clear
4:24 AM 30.2 °F - 28.4 °F 93% 30.06 in 2.5 mi Calm Calm - N/A   Clear
4:53 AM 30.0 °F - 28.9 °F 96% 30.08 in 2.5 mi Calm Calm - N/A   Clear
5:17 AM 28.4 °F - 26.6 °F 93% 30.07 in 1.8 mi Calm Calm - N/A   Clear
5:25 AM 28.4 °F - 26.6 °F 93% 30.06 in 2.5 mi Calm Calm - N/A   Clear
5:53 AM 28.9 °F - 27.0 °F 92% 30.07 in 2.0 mi Calm Calm - N/A   Clear
6:27 AM 30.2 °F - 28.4 °F 93% 30.07 in 1.0 mi Calm Calm - N/A   Clear
6:44 AM 28.4 °F - 26.6 °F 93% 30.08 in 2.5 mi Calm Calm - N/A   Clear
6:53 AM 30.0 °F - 28.0 °F 92% 30.09 in 2.0 mi Calm Calm - N/A   Clear
7:00 AM 30.2 °F - 26.6 °F 86% 30.08 in 0.8 mi Calm Calm - N/A   Clear
7:23 AM 30.2 °F - 28.4 °F 93% 30.09 in 0.2 mi Calm Calm - N/A Fog Light Freezing Fog
7:31 AM 30.2 °F - 28.4 °F 93% 30.09 in 1.0 mi Calm Calm - N/A   Clear
7:46 AM 30.2 °F - 30.2 °F 100% 30.09 in 0.2 mi Calm Calm - N/A Fog Light Freezing Fog
7:53 AM 32.0 °F - 30.9 °F 96% 30.09 in 0.2 mi Calm Calm - N/A Fog Fog
7:57 AM 33.8 °F - 30.2 °F 87% 30.09 in 1.0 mi Calm Calm - N/A   Clear
8:14 AM 35.6 °F - 33.8 °F 93% 30.09 in 3.0 mi Calm Calm - N/A   Clear
8:53 AM 43.0 °F 41.3 °F 37.9 °F 82% 30.10 in 10.0 mi South 3.5 mph - N/A   Clear
9:53 AM 46.9 °F - 36.0 °F 66% 30.09 in 10.0 mi Calm Calm - N/A   Clear
10:53 AM 52.0 °F - 37.0 °F 57% 30.09 in 10.0 mi Calm Calm - N/A   Clear
11:53 AM 55.9 °F - 37.0 °F 49% 30.07 in 10.0 mi Calm Calm - N/A   Clear
12:53 PM 59.0 °F - 30.9 °F 35% 30.04 in 10.0 mi Variable 3.5 mph - N/A   Clear
1:53 PM 60.1 °F - 28.9 °F 31% 30.01 in 10.0 mi Variable 3.5 mph - N/A   Clear
2:53 PM 60.1 °F - 28.9 °F 31% 29.99 in 10.0 mi Calm Calm - N/A   Clear
3:53 PM 61.0 °F - 30.0 °F 31% 29.97 in 9.0 mi SSW 3.5 mph - N/A   Clear
4:53 PM 59.0 °F - 32.0 °F 36% 29.95 in 10.0 mi South 4.6 mph - N/A   Clear
5:53 PM 51.1 °F - 35.1 °F 54% 29.95 in 10.0 mi Calm Calm - N/A   Clear
6:53 PM 44.1 °F - 37.0 °F 76% 29.95 in 10.0 mi Calm Calm - N/A   Clear
7:53 PM 39.9 °F - 35.1 °F 83% 29.96 in 10.0 mi Calm Calm - N/A   Clear
8:53 PM 41.0 °F - 36.0 °F 82% 29.96 in 10.0 mi Calm Calm - N/A   Clear
9:53 PM 44.1 °F 40.8 °F 34.0 °F 68% 29.97 in 10.0 mi South 5.8 mph - N/A   Clear
10:53 PM 43.0 °F 41.3 °F 35.1 °F 74% 29.95 in 10.0 mi South 3.5 mph - N/A   Clear
11:53 PM 41.0 °F 38.0 °F 35.1 °F 79% 29.94 in 10.0 mi South 4.6 mph - N/A   Clear